Temperature
18 18 18 18 19 19 19 19 19 19 19 19 19 19 19 19 19 19 19 19 19 19 19 19 19 19 19 19 19 19 19 18 18 18 18 18 18 18 18 18 18 18 18
19 18 18 18 18 18 19 19 19 19 19 19 19 19 19 19 19 19 19 19 19 19 19 19 19 19 19 19 19 19 18 18 18 18 18 18 18 18 18 18 18 18 18
18 18 18 18 18 18 18 18 18 18 18 18 19 19 19 19 19 19 19 19 19 19 19 19 19 19 19 18 19 19 18 18 18 18 18 18 18 18 18 18 18 18 18
18 18 18 18 18 18 18 18 18 18 18 18 18 18 18 18 18 18 19 19 19 19 19 19 19 19 18 18 18 18 18 18 18 18 18 18 18 18 18 18 18 18 18
18 18 18 18 18 18 18 18 18 18 18 18 18 18 18 18 18 18 18 18 18 18 18 18 19 18 18 18 18 18 18 18 18 18 18 18 18 18 18 18 18 18 18
18 18 18 18 18 18 18 17 17 17 17 17 17 17 18 18 18 18 18 18 18 18 18 18 18 18 18 18 18 18 18 18 18 18 18 18 18 18 18 18 18 18 18
18 18 18 17 17 17 17 17 17 17 17 17 17 17 17 17 17 17 17 18 18 18 18 18 18 18 18 18 18 18 18 18 18 18 18 18 18 18 18 18 18 18 18
18 17 17 17 17 17 17 17 17 17 17 17 17 17 17 17 17 17 17 17 18 18 18 18 18 18 18 18 18 18 18 18 18 18 18 18 18 18 18 18 18 18 18
17 17 17 17 17 17 17 17 16 16 16 16 16 16 16 17 17 17 17 17 17 17 17 18 18 18 18 18 18 18 18 18 18 18 18 18 18 18 18 18 18 18 18
17 17 17 17 17 16 16 16 16 16 16 16 16 16 16 16 16 17 17 17 17 17 17 17 17 17 18 18 18 18 18 18 18 18 18 18 18 18 18 18 18 18 18
17 17 17 17 16 16 16 16 16 16 15 15 15 16 16 16 16 16 16 16 17 17 17 17 17 17 17 17 18 18 18 18 18 18 18 18 18 18 18 18 18 18 18
17 17 17 16 16 16 16 16 15 15 15 15 15 15 15 15 15 16 16 16 16 16 16 17 17 17 17 17 17 17 17 18 18 18 18 18 18 18 18 18 18 18 18
17 17 16 16 16 16 15 15 15 15 15 15 15 15 15 15 15 15 15 15 16 16 16 16 17 17 17 17 17 17 17 17 18 18 18 18 18 18 18 18 18 18 18
17 17 16 16 16 15 15 15 15 15 14 14 14 14 14 15 15 15 15 15 15 15 16 16 16 16 17 17 17 17 17 17 17 18 18 18 18 18 18 18 18 18 18
17 16 16 16 15 15 15 15 15 14 14 14 14 14 14 14 14 14 15 15 15 15 15 16 16 16 16 16 17 17 17 17 17 17 18 18 18 18 18 18 17 18 18
17 16 16 15 15 15 15 14 14 14 14 14 14 14 14 14 14 14 14 14 15 15 15 15 15 16 16 16 16 17 17 17 17 17 18 18 18 18 18 18 17 17 17
17 16 15 15 15 15 14 14 14 14 14 14 13 13 13 13 13 14 14 14 14 14 14 15 15 15 16 16 16 16 17 17 17 17 18 18 18 17 17 17 17 17 17
16 16 15 15 15 14 14 14 14 14 13 13 13 13 13 13 13 13 13 14 14 14 14 14 15 15 15 15 16 16 17 17 17 17 17 18 18 18 17 17 17 17 17
16 15 15 15 14 14 14 14 14 13 13 13 13 13 13 13 13 13 13 13 13 14 14 14 14 15 15 15 16 16 16 17 17 17 17 17 17 17 17 17 17 17 17
16 15 15 14 14 14 14 13 13 13 13 13 13 13 13 13 13 13 13 13 13 13 13 14 14 14 14 15 15 15 16 16 16 17 17 17 17 17 17 17 17 17 17
16 15 15 14 14 14 14 13 13 13 13 13 13 13 13 13 13 13 13 13 13 13 13 13 13 14 14 14 15 15 15 16 16 16 17 17 17 17 17 17 17 17 17
16 15 14 14 14 13 13 13 13 13 13 13 13 13 13 12 12 12 12 12 12 12 13 13 13 13 14 14 14 15 15 15 16 16 16 16 17 17 17 17 17 17 17
15 15 14 14 13 13 13 13 13 13 13 13 13 12 12 12 12 12 12 12 12 12 12 13 13 13 13 14 14 14 14 15 15 15 16 16 16 16 17 17 17 17 17
15 15 14 14 13 13 13 13 13 13 13 12 12 12 12 12 12 12 12 12 12 12 12 13 13 13 13 13 13 14 14 14 14 15 15 16 16 16 16 16 16 17 17
15 14 14 14 13 13 13 13 13 12 12 12 12 12 12 12 12 12 12 12 12 12 12 12 12 13 13 13 13 13 14 14 14 14 14 15 15 16 16 16 16 16 17
15 14 14 14 13 13 13 13 13 12 12 12 12 12 12 12 12 12 12 12 12 12 12 12 12 12 13 13 13 13 13 13 14 14 14 14 15 15 16 16 16 16 16
Wind_Speed
2 4 7 7 6 4 4 3 4 4 4 4 4 4 5 5 5 4 3 3 3 3 3 3 3 4 4 4 4 4 4 4 4 4 4 4 5 5 5 6 6 6 7
4 5 7 7 5 4 3 3 2 2 3 3 4 4 4 4 4 4 3 2 2 2 2 1 1 2 2 3 3 3 4 3 3 3 3 3 4 4 4 5 6 5 7
4 5 5 6 5 4 3 3 3 2 3 3 4 4 5 5 5 4 4 4 4 3 3 2 1 1 1 1 2 2 3 3 2 2 3 2 2 4 4 5 6 6 7
4 4 4 4 3 2 2 2 2 3 3 3 4 5 6 6 6 6 6 6 5 5 4 3 3 2 1 0 1 2 2 3 2 2 2 2 1 3 4 5 5 6 6
3 3 2 3 2 1 1 2 3 3 4 4 5 5 6 6 7 7 7 7 7 7 6 6 5 4 3 2 1 1 2 3 2 3 2 2 1 3 4 5 5 6 6
2 2 1 2 1 1 2 2 3 4 5 5 6 6 7 7 7 7 8 8 8 8 8 7 7 6 5 4 3 2 1 2 2 2 1 1 2 3 4 5 5 6 6
2 2 1 1 1 0 2 3 3 4 5 5 6 7 7 8 8 8 8 9 9 9 9 9 8 8 7 5 5 3 2 1 1 0 0 2 3 4 5 5 5 6 6
3 2 2 2 2 2 2 3 4 4 5 6 7 7 7 8 8 8 9 9 9 10 9 9 9 9 8 7 6 5 3 2 1 0 1 3 4 5 6 6 6 6 6
2 2 2 3 4 4 4 4 5 6 6 6 7 7 7 8 7 8 9 9 9 10 10 9 9 9 9 8 8 7 5 3 1 2 2 3 5 5 6 6 6 6 6
2 1 2 3 4 5 6 6 6 6 6 6 6 6 6 7 7 8 8 9 9 9 9 9 9 10 10 9 9 8 6 4 3 3 3 4 6 7 7 7 7 7 7
1 1 2 3 3 4 4 5 6 6 6 7 7 7 7 6 7 7 8 8 8 9 8 8 9 10 10 9 9 8 6 3 3 4 4 6 7 8 7 8 8 8 8
1 1 1 2 2 3 4 4 5 5 6 6 6 6 6 6 5 5 7 8 8 8 8 7 8 9 8 6 7 6 4 4 4 4 6 7 8 9 8 9 9 9 8
2 1 1 1 2 2 2 3 4 5 5 5 5 5 5 4 4 5 5 6 7 7 5 5 5 5 4 4 4 4 4 4 4 5 6 8 9 9 9 9 10 10 9
2 2 1 1 2 2 2 2 2 3 3 3 5 5 3 2 2 3 2 4 4 4 3 3 2 3 4 4 4 4 4 4 4 5 7 9 10 10 10 10 11 11 11
2 1 1 1 2 2 2 2 2 2 2 3 4 4 3 2 2 2 2 3 3 3 2 2 2 2 3 3 3 4 4 4 5 6 7 8 9 10 11 11 12 11 12
2 1 1 1 2 2 2 2 2 2 3 3 3 4 4 2 2 2 3 3 2 3 3 2 3 2 2 2 3 4 4 4 5 5 6 7 9 10 11 12 12 12 12
2 1 1 1 1 2 2 2 2 3 3 2 3 5 4 3 2 2 2 3 3 3 3 2 2 1 2 2 2 3 3 4 4 4 5 6 7 8 10 11 12 12 13
2 1 2 1 1 2 2 3 2 3 3 3 4 5 5 4 3 2 2 3 3 3 1 1 1 1 1 1 2 2 2 2 3 4 4 5 5 5 7 10 12 12 13
2 1 1 2 2 3 3 3 3 3 3 3 4 4 5 5 3 2 2 3 3 2 1 2 1 1 1 1 2 2 2 2 2 2 3 4 5 5 5 8 10 12 13
1 0 1 2 3 3 3 3 3 4 3 3 3 4 5 4 4 2 2 2 2 1 2 1 1 0 1 1 2 1 1 1 1 1 2 2 3 4 5 5 6 9 12
1 0 1 2 3 2 2 2 3 3 4 4 3 5 5 5 4 2 2 2 2 1 2 2 1 0 1 0 1 1 1 1 0 1 1 1 1 2 4 5 6 6 8
2 2 2 3 3 2 2 2 2 3 3 3 4 5 5 5 5 2 2 2 2 2 1 1 1 0 0 1 1 1 1 2 1 1 0 1 1 1 2 4 5 6 7
3 3 3 3 3 3 3 2 2 2 3 4 4 5 5 6 5 3 2 2 1 1 1 2 2 2 1 0 0 2 2 1 1 1 1 0 1 1 2 2 4 6 7
5 3 3 3 3 3 2 2 2 2 2 3 3 4 6 5 4 3 2 2 1 1 1 2 1 1 2 1 0 0 1 2 1 1 2 1 0 1 2 2 3 4 6
4 3 3 3 3 3 2 2 2 2 2 3 4 5 5 5 4 4 3 2 2 1 1 1 1 1 1 2 1 1 1 1 1 1 1 1 1 1 2 2 2 3 5
3 3 2 2 3 3 2 2 2 3 4 4 5 5 5 4 4 5 4 3 2 1 1 1 1 1 2 2 2 2 2 1 1 2 1 1 1 1 2 2 2 2 4
Wind_Direction
205 204 189 168 155 145 144 147 149 149 148 152 149 148 151 151 147 146 142 136 132 122 111 102 87 84 83 77 73 72 76 78 80 81 81 91 101 103 103 102 103 99 104
169 177 183 171 162 157 157 163 178 177 174 182 187 186 181 177 174 170 176 181 177 165 153 131 103 88 87 79 73 67 63 66 68 72 81 95 106 109 108 111 114 115 114
138 161 167 169 169 172 177 193 216 222 217 219 219 217 213 211 206 202 208 216 219 211 200 199 198 146 123 82 63 52 42 43 46 68 86 98 113 119 116 118 120 121 121
132 143 157 175 176 188 210 232 248 255 252 250 246 241 238 235 231 227 228 231 233 228 223 224 226 226 207 216 22 29 25 28 36 71 91 124 152 137 133 131 128 127 127
108 120 146 165 177 195 248 277 287 289 283 276 269 264 258 254 251 244 245 245 244 240 234 233 235 234 230 239 275 343 5 10 36 66 95 122 147 156 146 146 140 134 131
102 111 148 160 177 227 263 283 297 298 298 292 284 278 272 267 264 260 257 256 256 250 245 241 237 237 237 241 255 280 324 356 48 61 97 166 192 183 160 155 152 148 142
123 97 84 114 123 214 269 286 292 300 307 308 305 298 290 284 277 271 265 260 259 256 252 248 242 239 241 244 249 258 276 306 109 44 210 202 220 206 179 167 166 158 149
120 81 43 27 14 353 328 314 309 314 316 317 316 316 309 303 296 288 278 271 266 261 257 254 248 243 241 243 244 249 257 269 247 246 267 230 234 215 195 181 175 168 161
87 63 19 4 356 349 342 332 327 327 325 323 322 319 317 313 308 303 296 286 274 267 262 259 255 251 248 246 245 243 246 252 229 223 253 237 239 225 206 191 182 176 172
67 36 10 5 359 345 338 334 335 334 335 333 329 325 326 324 319 312 307 302 291 276 268 265 263 258 255 251 248 245 243 242 231 236 251 244 241 232 215 199 190 185 177
47 0 3 4 358 347 337 341 343 339 342 344 342 339 340 340 334 322 315 311 308 299 283 274 272 265 260 255 250 248 243 218 222 239 243 243 241 233 221 201 193 187 179
236 309 353 357 353 356 354 353 350 344 343 344 340 338 340 337 331 327 326 320 314 311 304 291 286 276 261 250 248 250 232 215 220 238 246 247 242 234 222 202 195 189 182
222 282 319 339 346 352 344 346 347 344 343 342 339 336 334 336 334 336 336 330 326 320 313 305 299 288 260 230 227 233 230 220 224 240 251 251 245 236 224 206 197 193 187
188 237 287 342 345 339 345 342 340 342 341 336 330 334 340 339 331 330 332 327 326 318 313 303 288 278 261 234 220 223 232 227 228 238 249 253 248 237 224 211 200 195 190
187 243 292 351 351 339 346 335 353 336 335 327 327 330 331 316 314 311 313 322 320 319 312 301 288 274 257 240 226 222 224 227 234 236 241 252 250 240 225 215 203 195 192
211 251 301 334 348 352 345 328 316 330 334 332 324 322 315 295 286 299 306 305 303 305 294 281 275 268 258 237 234 231 227 225 232 234 236 246 249 241 226 217 206 198 195
206 239 288 277 4 352 335 328 333 329 333 324 315 315 306 293 285 280 293 298 295 301 298 298 292 272 261 247 241 241 230 225 226 231 233 234 239 237 224 213 208 202 197
177 217 281 330 359 340 338 329 324 328 329 317 313 314 310 305 299 290 287 292 300 308 298 288 278 276 272 275 264 256 241 234 234 234 229 224 222 222 219 213 208 206 202
169 205 283 325 332 331 335 334 328 328 323 319 321 317 312 310 305 290 279 288 309 313 312 297 272 224 242 273 262 248 242 234 242 242 227 217 212 204 200 209 210 209 207
141 235 314 329 331 336 340 341 337 336 329 327 324 321 321 316 308 294 276 291 306 315 318 311 295 279 237 250 268 277 267 247 237 223 225 207 194 192 188 193 200 211 213
136 286 303 319 322 344 346 335 329 322 319 325 322 329 331 328 319 292 289 297 292 271 271 283 271 269 288 242 77 5 336 311 246 229 199 179 198 197 182 188 194 199 213
216 244 274 292 306 312 299 285 271 282 294 294 312 331 340 337 331 316 293 287 285 276 284 271 221 208 256 145 121 104 356 354 343 320 199 189 215 207 204 200 193 196 204
233 239 255 273 293 308 322 333 339 343 335 340 340 338 333 334 333 326 313 298 293 272 265 252 215 179 193 281 124 142 142 216 316 336 321 195 175 196 227 213 202 200 204
235 243 254 271 291 308 335 354 352 342 324 300 302 308 319 332 335 334 326 321 310 293 277 262 214 199 162 171 3 47 164 175 147 334 340 335 247 214 235 237 215 206 204
232 236 249 274 293 310 327 338 342 322 297 303 312 326 333 333 335 337 332 329 330 315 295 286 263 206 180 176 168 139 74 65 185 175 245 295 293 246 229 226 210 204 207
235 242 252 274 288 307 323 330 323 313 317 327 330 336 335 331 332 340 335 334 328 318 295 281 248 207 206 183 174 170 165 167 202 181 200 229 250 256 242 231 212 206 202
Height
1523 1524 1526 1527 1528 1529 1529 1530 1530 1531 1531 1531 1531 1531 1531 1531 1531 1531 1531 1531 1531 1530 1530 1530 1530 1529 1529 1529 1528 1528 1528 1528 1527 1527 1527 1527 1527 1527 1527 1527 1527 1527 1527
1524 1525 1526 1527 1528 1529 1530 1530 1530 1531 1531 1531 1531 1531 1531 1531 1531 1531 1531 1530 1530 1530 1530 1530 1529 1529 1529 1529 1529 1528 1528 1528 1528 1528 1527 1527 1527 1527 1527 1527 1528 1528 1528
1524 1525 1526 1527 1528 1529 1529 1530 1530 1530 1530 1530 1530 1530 1530 1530 1530 1530 1530 1530 1530 1530 1530 1529 1529 1529 1529 1529 1529 1528 1528 1528 1528 1528 1528 1528 1527 1527 1528 1528 1528 1528 1529
1525 1526 1527 1527 1528 1529 1529 1529 1529 1529 1529 1529 1529 1529 1529 1529 1529 1529 1529 1529 1529 1529 1529 1529 1529 1529 1528 1528 1528 1528 1528 1528 1528 1528 1528 1528 1528 1528 1528 1528 1528 1529 1529
1525 1526 1527 1527 1528 1528 1528 1528 1528 1528 1528 1528 1528 1528 1528 1527 1527 1527 1527 1527 1527 1528 1528 1528 1528 1528 1528 1528 1528 1528 1528 1528 1528 1528 1528 1528 1528 1528 1528 1529 1529 1529 1530
1526 1527 1527 1528 1528 1528 1528 1527 1527 1527 1527 1527 1526 1526 1526 1526 1526 1526 1526 1526 1526 1526 1526 1526 1527 1527 1527 1527 1527 1527 1527 1528 1528 1528 1528 1528 1528 1528 1528 1529 1529 1530 1530
1527 1527 1527 1528 1527 1527 1527 1526 1526 1526 1526 1525 1525 1524 1524 1524 1524 1524 1524 1524 1524 1524 1524 1525 1525 1525 1526 1526 1526 1527 1527 1527 1528 1528 1528 1528 1528 1528 1529 1529 1529 1530 1531
1527 1528 1527 1527 1527 1526 1526 1525 1525 1524 1523 1523 1522 1522 1522 1521 1521 1522 1522 1522 1522 1522 1522 1523 1523 1524 1524 1525 1525 1525 1526 1526 1527 1527 1528 1528 1528 1528 1528 1529 1529 1530 1531
1528 1528 1527 1527 1526 1525 1525 1524 1523 1522 1521 1521 1520 1519 1519 1519 1519 1519 1519 1519 1519 1520 1520 1521 1521 1522 1523 1523 1524 1524 1525 1525 1526 1527 1527 1527 1528 1528 1528 1529 1530 1530 1531
1528 1527 1527 1526 1525 1524 1524 1523 1522 1521 1520 1519 1518 1517 1517 1516 1516 1516 1516 1516 1517 1517 1518 1518 1519 1519 1520 1521 1522 1523 1523 1524 1525 1526 1526 1527 1527 1527 1528 1529 1530 1530 1531
1527 1527 1526 1525 1524 1523 1522 1521 1520 1519 1518 1517 1516 1515 1515 1514 1514 1514 1514 1514 1514 1514 1515 1515 1516 1517 1518 1519 1520 1521 1522 1522 1523 1524 1525 1526 1526 1527 1527 1528 1529 1530 1531
1527 1526 1526 1525 1524 1522 1521 1520 1519 1517 1516 1515 1514 1513 1513 1512 1511 1511 1511 1511 1511 1512 1512 1513 1513 1514 1515 1517 1518 1519 1519 1520 1522 1523 1524 1525 1525 1526 1527 1527 1528 1530 1531
1526 1526 1525 1524 1523 1521 1520 1519 1517 1516 1515 1513 1512 1511 1510 1510 1509 1509 1508 1508 1509 1509 1509 1510 1511 1511 1513 1514 1515 1516 1517 1519 1520 1521 1522 1523 1524 1525 1526 1527 1528 1529 1530
1525 1525 1524 1523 1522 1521 1519 1518 1516 1514 1513 1512 1510 1509 1508 1507 1507 1506 1506 1506 1506 1506 1506 1507 1508 1509 1510 1511 1513 1514 1515 1516 1518 1519 1521 1522 1523 1524 1525 1526 1527 1528 1530
1525 1524 1523 1522 1521 1520 1518 1516 1515 1513 1511 1510 1508 1507 1506 1505 1505 1504 1503 1503 1503 1503 1504 1504 1505 1506 1507 1508 1510 1511 1513 1514 1515 1517 1519 1520 1521 1523 1524 1525 1526 1527 1529
1524 1523 1523 1521 1520 1518 1517 1515 1513 1512 1510 1508 1507 1505 1504 1503 1503 1502 1501 1501 1500 1501 1501 1502 1502 1503 1504 1506 1507 1508 1510 1511 1513 1515 1516 1518 1520 1521 1522 1523 1525 1526 1528
1524 1523 1522 1520 1519 1517 1515 1514 1512 1510 1508 1507 1505 1504 1503 1501 1500 1500 1499 1498 1498 1498 1498 1499 1499 1500 1501 1503 1504 1505 1507 1508 1510 1512 1514 1516 1518 1519 1521 1522 1523 1525 1527
1523 1522 1521 1519 1517 1516 1514 1512 1511 1509 1507 1505 1503 1502 1501 1499 1498 1497 1497 1496 1496 1496 1496 1496 1496 1497 1498 1499 1501 1502 1504 1505 1507 1509 1511 1513 1515 1517 1519 1520 1522 1524 1526
1522 1521 1520 1518 1517 1515 1513 1511 1509 1508 1506 1504 1502 1501 1499 1498 1497 1495 1495 1494 1494 1493 1493 1494 1494 1495 1495 1497 1498 1499 1501 1503 1505 1506 1508 1511 1513 1515 1517 1518 1520 1522 1524
1521 1520 1519 1518 1516 1514 1512 1510 1509 1507 1505 1503 1501 1499 1498 1496 1495 1494 1493 1492 1492 1491 1491 1491 1492 1492 1493 1494 1495 1497 1498 1500 1502 1504 1506 1508 1510 1512 1514 1516 1518 1520 1522
1521 1520 1518 1517 1515 1513 1511 1509 1507 1506 1504 1502 1500 1498 1497 1495 1493 1492 1491 1490 1490 1489 1489 1489 1490 1491 1491 1492 1493 1494 1495 1497 1499 1501 1503 1505 1507 1509 1512 1514 1516 1518 1520
1520 1519 1518 1516 1515 1513 1511 1509 1507 1505 1503 1501 1499 1497 1495 1494 1492 1491 1489 1489 1488 1488 1488 1488 1488 1489 1490 1490 1491 1492 1493 1496 1496 1498 1500 1502 1504 1506 1509 1511 1513 1516 1518
1519 1518 1517 1516 1514 1512 1510 1508 1506 1504 1502 1500 1498 1496 1495 1493 1491 1490 1488 1487 1486 1486 1486 1486 1486 1487 1488 1489 1490 1491 1492 1493 1494 1496 1497 1499 1501 1504 1506 1509 1511 1513 1515
1518 1517 1516 1515 1513 1512 1510 1508 1506 1504 1501 1499 1497 1495 1494 1492 1490 1489 1487 1486 1485 1484 1484 1484 1484 1485 1486 1487 1488 1489 1491 1492 1493 1494 1496 1497 1499 1501 1503 1506 1508 1510 1512
1517 1516 1515 1514 1513 1511 1510 1508 1505 1503 1501 1499 1497 1495 1493 1491 1489 1488 1486 1485 1484 1483 1483 1482 1483 1484 1485 1486 1487 1488 1489 1490 1492 1493 1493 1495 1497 1499 1501 1503 1505 1507 1509
1515 1515 1514 1513 1512 1511 1509 1507 1505 1503 1501 1499 1497 1495 1492 1490 1489 1487 1485 1484 1483 1482 1481 1481 1482 1482 1483 1484 1485 1486 1488 1489 1490 1491 1492 1492 1494 1496 1498 1500 1502 1504 1506